Regional Weather Roundup
Issued by NWS

Home | Current Version | Previous Version | Text Only | Print | Product List | Glossary On
Versions: 1 2 3 4 5 6 7 8 9 10 11 12 13 14 15 16 17 18 19 20 21 22 23 24 25 26 27 28 29 30 31 32 33 34 35 36 37 38 39 40 41 42 43 44 45 46 47 48 49 50
000
ASUS43 KLMK 201010
RWRKY
KENTUCKY REGIONAL WEATHER ROUNDUP
NATIONAL WEATHER SERVICE LOUISVILLE KY
600 AM EDT WED SEP 20 2017

NOTE "FAIR" INDICATES FEW OR NO CLOUDS BELOW 12,000 FEET
WITH NO SIGNIFICANT WEATHER AND/OR OBSTRUCTIONS TO VISIBILITY.

KYZ001>023-026-027-061>063-070>075-201100-
WESTERN AND SOUTH CENTRAL KENTUCKY

CITY           SKY/WX    TMP DP  RH WIND       PRES   REMARKS
PADUCAH        CLEAR     73  67  81 S5        29.91S
HENDERSON      CLEAR     68  67  96 CALM      29.94R
OWENSBORO      CLEAR     68  67  96 SE3       29.95R
HOPKINSVILLE   CLEAR     69  68  97 CALM      29.95S
BOWLING GREEN  CLEAR     66  66 100 CALM      29.97S
GLASGOW        PTCLDY   N/A N/A N/A CALM      29.98S FOG
$$

KYZ024-025-028>034-038-045-046-053-201100-
NORTH CENTRAL KENTUCKY

CITY           SKY/WX    TMP DP  RH WIND       PRES   REMARKS
LOUISVILLE/SDF MOCLDY    67  67 100 SE6       29.96S FOG
LOUISVILLE/LOU PTCLDY    66  66 100 SE3       29.97S FOG
FORT KNOX      FOG       64  64 100 CALM      29.96R VSB 1/4
$$

KYZ035>037-039>044-047>052-055>060-089>105-201100-
NORTHEAST KENTUCKY

CITY           SKY/WX    TMP DP  RH WIND       PRES   REMARKS
LEXINGTON      CLEAR     67  65  93 SW3       30.00R FOG
COVINGTON      PTCLDY    64  64 100 CALM      29.98S FOG
FRANKFORT      FOG       61  59  93 CALM      29.97S VSB 1/4
$$

KYZ054-064>069-076>088-106>120-201100-
SOUTHEAST KENTUCKY

CITY           SKY/WX    TMP DP  RH WIND       PRES   REMARKS
JACKSON        FOG       66  65  96 CALM      30.02R VSB 1/4
LONDON         FOG       62  61  96 CALM      30.02S VSB 1/4
SOMERSET       PTCLDY    61  61 100 CALM      30.03S FOG
MIDDLESBORO    CLOUDY    62  62 100 CALM      30.05R FOG
MONTICELLO     NOT AVBL
$$




USA.gov is the U.S. government's official web portal to all federal, state and local government web resources and services.